FW3806 Weather Reports


Display with metric or nautical units.
time (UTC)temp
F
wind
direction
speed
MPH
gust
MPH
rain 1hr
in
rain 24hr
in
rain mn
in
humidity
%
barometer
mb
20260904013056 91 212 7.0 15.0 0.00 0.00 0.00 10 1003.7
20260904011556 91 181 8.0 20.0 0.00 0.00 0.00 10 1003.7
20260904010056 91 159 11.0 20.0 0.00 0.00 0.00 10 1003.7
20260904004553 92 186 6.0 21.0 0.00 0.00 0.00 10 1003.7
20260904003053 92 226 7.0 19.0 0.00 0.00 0.00 9 1003.9
20260904001552 92 196 11.0 17.0 0.00 0.00 0.00 10 1003.9
20260904000051 93 200 13.0 23.0 0.00 0.00 0.00 10 1004.0
20260903234550 93 267 8.0 17.0 0.00 0.00 0.00 10 1004.0
20260903233049 93 208 6.0 12.0 0.00 0.00 0.00 11 1004.1
20260903231551 93 149 10.0 18.0 0.00 0.00 0.00 10 1004.3
20260903230049 93 152 11.0 19.0 0.00 0.00 0.00 10 1004.4
20260903224546 92 129 9.0 20.0 0.00 0.00 0.00 10 1004.5
20260903223042 92 191 8.0 20.0 0.00 0.00 0.00 11 1004.8
20260903221547 92 115 10.0 19.0 0.00 0.00 0.00 11 1004.9
20260903220039 92 136 12.0 23.0 0.00 0.00 0.00 11 1005.0
20260903214536 92 131 11.0 23.0 0.00 0.00 0.00 11 1005.1
20260903213035 92 136 10.0 19.0 0.00 0.00 0.00 11 1005.4
20260903211634 92 136 10.0 20.0 0.00 0.00 0.00 11 1005.4
20260903210032 92 201 9.0 17.0 0.00 0.00 0.00 12 1005.4
20260903204530 91 121 8.0 13.0 0.00 0.00 0.00 12 1005.6
20260903203039 90 179 8.0 17.0 0.00 0.00 0.00 12 1005.8
20260903201524 90 103 9.0 16.0 0.00 0.00 0.00 13 1006.1
20260903200039 89 153 11.0 19.0 0.00 0.00 0.00 13 1006.2
20260903194535 89 155 11.0 19.0 0.00 0.00 0.00 12 1006.4
20260903193026 89 110 12.0 19.0 0.00 0.00 0.00 13 1006.6
20260903191518 88 70 11.0 20.0 0.00 0.00 0.00 13 1006.9
20260903190016 87 112 9.0 18.0 0.00 0.00 0.00 13 1007.1
20260903184512 86 145 11.0 16.0 0.00 0.00 0.00 14 1007.3
20260903183014 85 94 10.0 17.0 0.00 0.00 0.00 15 1007.6
20260903181508 84 146 8.0 17.0 0.00 0.00 0.00 16 1007.8
20260903180011 83 91 6.0 13.0 0.00 0.00 0.00 16 1008.0
20260903174504 83 63 7.0 13.0 0.00 0.00 0.00 16 1008.0
20260903173002 83 100 7.0 13.0 0.00 0.00 0.00 16 1008.1
20260903171600 81 121 5.0 11.0 0.00 0.00 0.00 17 1008.3
20260903170059 81 156 5.0 12.0 0.00 0.00 0.00 18 1008.3
20260903164602 80 96 7.0 11.0 0.00 0.00 0.00 18 1008.3
20260903163055 80 132 5.0 13.0 0.00 0.00 0.00 19 1008.2
20260903161555 79 110 7.0 12.0 0.00 0.00 0.00 19 1008.2
20260903160104 78 121 6.0 10.0 0.00 0.00 0.00 20 1008.4
20260903154553 77 124 5.0 11.0 0.00 0.00 0.00 20 1008.3
20260903153052 77 93 4.0 10.0 0.00 0.00 0.00 21 1008.3
20260903151555 76 77 4.0 11.0 0.00 0.00 0.00 22 1008.3
20260903150058 75 94 4.0 9.0 0.00 0.00 0.00 22 1008.2
20260903144650 75 113 4.0 9.0 0.00 0.00 0.00 23 1008.3
20260903143049 74 91 4.0 8.0 0.00 0.00 0.00 23 1008.0
20260903141547 73 96 3.0 7.0 0.00 0.00 0.00 23 1007.9
20260903140045 72 106 2.0 6.0 0.00 0.00 0.00 24 1007.8
20260903134544 72 96 1.0 5.0 0.00 0.00 0.00 23 1007.6
20260903133043 72 71 3.0 6.0 0.00 0.00 0.00 24 1007.4
20260903131542 71 71 4.0 8.0 0.00 0.00 0.00 24 1007.2
20260903124538 71 53 3.0 7.0 0.00 0.00 0.00 24 1007.2
20260903123037 72 59 3.0 9.0 0.00 0.00 0.00 24 1007.0
20260903121543 72 103 4.0 8.0 0.00 0.00 0.00 22 1006.9
20260903120032 73 61 3.0 8.0 0.00 0.00 0.00 22 1006.9
20260903114534 73 78 5.0 10.0 0.00 0.00 0.00 22 1006.7
20260903113035 73 83 4.0 8.0 0.00 0.00 0.00 21 1006.7
20260903111524 76 63 3.0 8.0 0.00 0.00 0.00 19 1006.6
20260903110054 76 155 7.0 13.0 0.00 0.00 0.00 19 1006.5
20260903104521 77 131 6.0 13.0 0.00 0.00 0.00 19 1006.5
20260903103022 78 141 9.0 16.0 0.00 0.00 0.00 16 1006.4
20260903101518 78 123 9.0 17.0 0.00 0.00 0.00 17 1006.6
20260903100018 78 129 7.0 15.0 0.00 0.00 0.00 17 1006.6
20260903094535 77 83 7.0 11.0 0.00 0.00 0.00 17 1006.8
20260903093014 77 106 6.0 11.0 0.00 0.00 0.00 17 1006.9
20260903091513 77 134 6.0 12.0 0.00 0.00 0.00 17 1006.9
20260903090010 77 113 6.0 9.0 0.00 0.00 0.00 17 1007.1
20260903084508 78 144 4.0 7.0 0.00 0.00 0.00 16 1007.1
20260903083005 79 112 4.0 8.0 0.00 0.00 0.00 15 1007.2
20260903081504 79 103 4.0 10.0 0.00 0.00 0.00 14 1007.1
20260903080005 79 140 3.0 8.0 0.00 0.00 0.00 13 1007.2
20260903074501 79 165 3.0 13.0 0.00 0.00 0.00 12 1007.1
20260903073106 80 136 4.0 8.0 0.00 0.00 0.00 12 1007.2
20260903071558 80 158 3.0 9.0 0.00 0.00 0.00 12 1007.2
20260903070056 80 150 2.0 6.0 0.00 0.00 0.00 11 1007.2
20260903064552 80 129 3.0 6.0 0.00 0.00 0.00 10 1007.2
20260903063047 80 151 2.0 4.0 0.00 0.00 0.00 10 1007.0
20260903061552 82 164 2.0 6.0 0.00 0.00 0.00 9 1007.0
20260903060041 82 138 3.0 7.0 0.00 0.00 0.00 9 1007.0
20260903054546 83 141 3.0 9.0 0.00 0.00 0.00 9 1007.0
20260903053055 84 212 5.0 9.0 0.00 0.00 0.00 7 1006.7
20260903051528 84 153 4.0 12.0 0.00 0.00 0.00 7 1006.8
20260903050024 85 173 7.0 15.0 0.00 0.00 0.00 7 1006.8
20260903044523 84 164 5.0 11.0 0.00 0.00 0.00 8 1006.8
20260903043024 83 122 5.0 10.0 0.00 0.00 0.00 8 1006.8
20260903041515 84 123 6.0 10.0 0.00 0.00 0.00 8 1006.8
20260903040010 84 125 5.0 10.0 0.00 0.00 0.00 8 1006.7
20260903034506 84 108 6.0 11.0 0.00 0.00 0.00 7 1006.5
20260903033002 85 151 5.0 12.0 0.00 0.00 0.00 6 1006.3
20260903031557 86 179 9.0 15.0 0.00 0.00 0.00 6 1006.2
20260903030053 86 218 7.0 14.0 0.00 0.00 0.00 5 1006.1
20260903024548 87 203 9.0 20.0 0.00 0.00 0.00 5 1006.0
20260903023044 87 155 7.0 22.0 0.00 0.00 0.00 5 1005.8
20260903021550 87 97 8.0 17.0 0.00 0.00 0.00 5 1005.8
20260903020038 88 205 4.0 15.0 0.00 0.00 0.00 4 1005.9
20260903014536 89 198 11.0 23.0 0.00 0.00 0.00 4 1005.8